Location: S�o Paulo
(23.5330°S, 46.6170°W)
Time: 09:02:28
(UTC-02:00)

ISS - Visible Passes

Search period start: 18 December 2017 00:00
Search period end: 28 December 2017 00:00
Orbit: 402 x 406 km, 51.6° (Epoch: 18 December)

Date Brightness Start Highest point End Pass type
(mag) Time Alt. Az. Time Alt. Az. Time Alt. Az.
19 Dec -4.0 21:10:04 10° NNW 21:13:19 71° NE 21:16:37 10° SE visible
20 Dec -0.3 05:22:45 10° SSE 05:24:25 13° SE 05:26:04 10° ESE visible
20 Dec -2.8 20:18:20 10° N 20:21:08 26° NE 20:23:58 10° ESE visible
20 Dec -0.5 21:55:36 10° W 21:57:36 15° SW 21:59:36 10° S visible
21 Dec -1.8 21:02:13 10° WNW 21:05:11 31° SW 21:08:11 10° SSE visible
22 Dec -2.0 05:13:21 10° SSW 05:16:26 36° SE 05:19:29 10° ENE visible
23 Dec -0.7 04:21:48 10° S 04:24:03 17° SE 04:26:15 10° E visible
23 Dec -0.2 20:55:53 10° WSW 20:57:11 12° SW 20:58:30 10° SSW visible
24 Dec -3.9 05:04:58 10° SW 05:08:14 60° NW 05:11:27 10° NNE visible
